Location: Deurze
(52.9838°N, 6.6090°E)
Time: 19:12:13
(UTC+00:00)

Cosmos 1867 - Pass Details

Date: 11 March 2026
Orbit: 776 x 798 km, 65.0° (Epoch: 20 April)

Event Time Altitude Azimuth Distance (km) Brightness Sun altitude
Rises 18:21:40 0° 315° (NW) 3,312 7.7 -8.5°
Reaches altitude 10° 18:24:08 10° 311° (NW) 2,379 7.0 -8.9°
Maximum altitude 18:29:26 52° 236° (SW) 987 4.4 -9.7°
Drops below altitude 10° 18:34:42 10° 161° (SSE) 2,363 5.8 -10.5°
Sets 18:37:09 0° 157° (SSE) 3,287 6.5 -10.8°
